Regional Weather Roundup
Issued by NWS

Home | Current Version | Previous Version | Text Only | Print | Product List | Glossary Off
Versions: 1 2 3 4 5 6 7 8 9 10 11 12 13 14 15 16 17 18 19 20 21 22 23 24 25 26 27 28 29 30 31 32 33 34 35 36 37 38 39 40 41 42 43 44 45 46 47 48 49 50

000
ASUS45 KSLC 010610
RWRUT

UTAH REGIONAL WEATHER ROUNDUP
NATIONAL WEATHER SERVICE SALT LAKE CITY UT
1200 AM MDT MON SEP 01 2014

UTZ001>011-023>025-010700-

NORTHERN UTAH

CITY           SKY/WX    TMP DP  RH WIND       PRES   REMARKS
HILL AFB       CLEAR     59  34  39 E14       30.02S
LOGAN          CLEAR     53  44  71 E7        30.03R
OGDEN          CLEAR     59  34  39 S9        29.99F
PROVO AIRPORT  CLEAR     57  45  62 SE8       30.03R
SALT LAKE CITY CLEAR     62  35  36 SE6       29.98S
VERNAL         CLEAR     56  37  49 W6        30.04R
WENDOVER       CLEAR     68  37  32 CALM      29.98S
HEBER CITY     CLEAR     45  37  76 SE5       30.08S
WEST JORDAN    CLEAR     57  45  62 CALM      30.01F

$$

UTZ012>022-026-027-010700-

SOUTHERN UTAH

CITY           SKY/WX    TMP DP  RH WIND       PRES   REMARKS
BRYCE CANYON   CLEAR     49  34  56 W3        30.20S
CEDAR CITY     CLEAR     64  29  26 SE6       30.04S
MILFORD        CLEAR     63  37  38 CALM      30.00R
MOAB/CYNLANDS  CLEAR     67  31  26 MISG      29.95R
PRICE          CLEAR     57  33  40 N7        30.07S
ST GEORGE      CLEAR     81  34  18 S3        29.84S
KANAB            N/A     61  39  44 NE3       30.04R

$$

REGIONAL REPORTS     COLORADO/ARIZONA

CITY           SKY/WX    TMP DP  RH WIND       PRES   REMARKS
CRAIG, CO      CLEAR     51  39  63 CALM      30.12R
GRAND JUNCTION CLEAR     61  39  44 CALM      30.00R
RIFLE          CLEAR     63  42  46 S5        30.05R
MONTROSE       CLEAR     59  41  51 SE8       30.07R
CORTEZ         CLEAR     58  41  53 SE10      30.06R
PAGE, AZ       CLEAR     85  27  12 W8        29.94R
GRAND CANYON     N/A    N/A N/A N/A MISG        N/A
KINGMAN        CLEAR     78  37  22 CALM      29.92S
FLAGSTAFF      CLEAR     53  42  66 CALM      30.24S

$$

REGIONAL REPORTS    NEVADA/IDAHO/WYOMING

CITY           SKY/WX    TMP DP  RH WIND       PRES   REMARKS
LAS VEGAS, NV  CLEAR     91  30  11 S14       29.72S
ELY            CLEAR     49  33  54 S6        30.10R
ELKO           CLEAR     55  33  43 CALM      30.04R
POCATELLO, ID  PTCLDY    58  36  43 SW13      30.01S
BURLEY         PTCLDY    52  43  71 SW6       30.00F
EVANSTON, WY   CLEAR     50  28  42 S5        30.14F
ROCK SPRINGS   CLEAR     50  34  54 NW9       30.13S

$$



USA.gov is the U.S. government's official web portal to all federal, state and local government web resources and services.